TimeMST,TemperatureF,Dew PointF,Humidity,Sea Level PressureIn,VisibilityMPH,Wind Direction,Wind SpeedMPH,Gust SpeedMPH,PrecipitationIn,Events,Conditions,WindDirDegrees,DateUTC
6:35 AM,32.0,23.0,69,30.13,10.0,SSE,9.2,-,N/A,,Clear,150,2012-12-06 13:35:00
6:55 AM,32.0,24.8,75,30.14,10.0,SSE,5.8,-,N/A,,Clear,150,2012-12-06 13:55:00
7:15 AM,32.0,24.8,75,30.13,10.0,SSE,6.9,-,N/A,,Clear,150,2012-12-06 14:15:00
7:35 AM,32.0,24.8,75,30.13,10.0,SE,9.2,-,N/A,,Clear,140,2012-12-06 14:35:00
7:55 AM,33.8,26.6,75,30.12,10.0,SSE,6.9,-,N/A,,Clear,150,2012-12-06 14:55:00
8:15 AM,35.6,26.6,70,30.12,10.0,SSE,9.2,-,N/A,,Clear,150,2012-12-06 15:15:00
8:35 AM,39.2,26.6,61,30.11,10.0,SE,8.1,-,N/A,,Clear,140,2012-12-06 15:35:00
8:55 AM,48.2,32.0,54,30.11,10.0,SSW,8.1,-,N/A,,Clear,200,2012-12-06 15:55:00
9:15 AM,48.2,30.2,50,30.13,10.0,NNW,5.8,-,N/A,,Clear,330,2012-12-06 16:15:00
9:35 AM,50.0,30.2,47,30.14,10.0,NW,5.8,-,N/A,,Clear,320,2012-12-06 16:35:00
9:55 AM,50.0,32.0,50,30.14,10.0,WSW,6.9,-,N/A,,Clear,250,2012-12-06 16:55:00
10:15 AM,51.8,32.0,47,30.14,10.0,SW,5.8,-,N/A,,Clear,230,2012-12-06 17:15:00
10:35 AM,53.6,32.0,44,30.14,10.0,SW,9.2,-,N/A,,Clear,220,2012-12-06 17:35:00
10:55 AM,53.6,32.0,44,30.14,10.0,WSW,8.1,-,N/A,,Clear,240,2012-12-06 17:55:00
11:15 AM,53.6,32.0,44,30.13,10.0,West,10.4,-,N/A,,Clear,280,2012-12-06 18:15:00
11:35 AM,55.4,32.0,41,30.13,10.0,WSW,11.5,-,N/A,,Clear,240,2012-12-06 18:35:00
11:55 AM,55.4,32.0,41,30.12,10.0,West,10.4,16.1,N/A,,Clear,260,2012-12-06 18:55:00
12:15 PM,53.6,32.0,44,30.11,10.0,WSW,9.2,16.1,N/A,,Clear,240,2012-12-06 19:15:00
12:35 PM,53.6,32.0,44,30.09,10.0,SSW,8.1,-,N/A,,Clear,200,2012-12-06 19:35:00
12:55 PM,53.6,32.0,44,30.09,10.0,SSW,9.2,-,N/A,,Clear,210,2012-12-06 19:55:00
1:15 PM,53.6,32.0,44,30.08,10.0,SSW,9.2,-,N/A,,Clear,210,2012-12-06 20:15:00
1:35 PM,53.6,32.0,44,30.07,10.0,WSW,5.8,-,N/A,,Clear,250,2012-12-06 20:35:00
1:55 PM,53.6,32.0,44,30.07,10.0,SW,8.1,-,N/A,,Clear,220,2012-12-06 20:55:00
2:15 PM,53.6,32.0,44,30.06,10.0,SW,11.5,16.1,N/A,,Clear,220,2012-12-06 21:15:00
2:35 PM,53.6,32.0,44,30.07,10.0,WSW,10.4,-,N/A,,Clear,240,2012-12-06 21:35:00
2:55 PM,53.6,32.0,44,30.06,10.0,SSW,9.2,-,N/A,,Clear,210,2012-12-06 21:55:00
3:15 PM,53.6,32.0,44,30.06,10.0,SSW,8.1,-,N/A,,Scattered Clouds,210,2012-12-06 22:15:00
3:35 PM,53.6,32.0,44,30.06,10.0,SW,4.6,-,N/A,,Scattered Clouds,220,2012-12-06 22:35:00
3:55 PM,53.6,30.2,41,30.06,10.0,WSW,6.9,-,N/A,,Partly Cloudy,250,2012-12-06 22:55:00
4:15 PM,53.6,32.0,44,30.06,10.0,West,5.8,-,N/A,,Scattered Clouds,260,2012-12-06 23:15:00
4:35 PM,53.6,32.0,44,30.05,10.0,West,8.1,-,N/A,,Partly Cloudy,260,2012-12-06 23:35:00
4:55 PM,50.0,30.2,47,30.06,10.0,WSW,5.8,-,N/A,,Clear,240,2012-12-06 23:55:00
5:15 PM,48.2,30.2,50,30.06,10.0,West,3.5,-,N/A,,Partly Cloudy,270,2012-12-07 00:15:00
5:35 PM,46.4,30.2,53,30.06,10.0,WSW,4.6,-,N/A,,Clear,250,2012-12-07 00:35:00
6:15 PM,44.6,28.4,53,30.06,10.0,SSW,4.6,-,N/A,,Clear,210,2012-12-07 01:15:00
6:35 PM,39.2,28.4,65,30.06,10.0,South,3.5,-,N/A,,Clear,190,2012-12-07 01:35:00
6:55 PM,37.4,28.4,70,30.07,10.0,SSE,4.6,-,N/A,,Clear,160,2012-12-07 01:55:00
7:35 PM,35.6,26.6,70,30.08,10.0,SSE,5.8,-,N/A,,Clear,150,2012-12-07 02:35:00
7:55 PM,35.6,26.6,70,30.08,10.0,SSE,5.8,-,N/A,,Clear,160,2012-12-07 02:55:00
8:15 PM,33.8,26.6,75,30.09,10.0,SSE,6.9,-,N/A,,Clear,160,2012-12-07 03:15:00
8:35 PM,32.0,26.6,80,30.09,10.0,SSE,8.1,-,N/A,,Clear,150,2012-12-07 03:35:00
8:55 PM,32.0,26.6,80,30.09,10.0,SSE,6.9,-,N/A,,Clear,150,2012-12-07 03:55:00
9:15 PM,32.0,26.6,80,30.09,10.0,SSE,6.9,-,N/A,,Clear,150,2012-12-07 04:15:00
9:35 PM,32.0,26.6,80,30.09,10.0,SSE,6.9,-,N/A,,Clear,160,2012-12-07 04:35:00
9:55 PM,32.0,26.6,80,30.10,10.0,South,5.8,-,N/A,,Clear,170,2012-12-07 04:55:00
10:15 PM,32.0,26.6,80,30.10,10.0,SSE,6.9,-,N/A,,Clear,160,2012-12-07 05:15:00
10:35 PM,30.2,24.8,80,30.10,10.0,SSE,6.9,-,N/A,,Clear,160,2012-12-07 05:35:00
10:55 PM,30.2,24.8,80,30.10,10.0,SSE,6.9,-,N/A,,Clear,160,2012-12-07 05:55:00
11:15 PM,28.4,24.8,86,30.10,10.0,SSE,6.9,-,N/A,,Clear,150,2012-12-07 06:15:00
11:35 PM,28.4,24.8,86,30.11,10.0,SSE,6.9,-,N/A,,Clear,160,2012-12-07 06:35:00
11:55 PM,32.0,26.6,80,30.10,10.0,SSE,8.1,-,N/A,,Clear,160,2012-12-07 06:55:00